Location: Mat�lon
(46.2791°N, 7.1028°E)
Time: 01:01:59
(UTC+00:00)

Abrixas rocket - Pass Details

Date: 18 September 2020
Orbit: 327 x 334 km, 48.4° (Epoch: 31 October)

Event Time Altitude Azimuth Distance (km) Brightness Sun altitude
Rises 19:35:38 0° 276° (W) 2,090 7.1 -20.7°
Reaches altitude 10° 19:37:39 10° 282° (WNW) 1,253 5.7 -21.0°
Enters shadow 19:39:38 37° 308° (NW) 535 3.3 -21.3°
